Wind_Speed
24 22 20 17 14 12 8 6 4 1 2 8 15 21 26 31 35 37 39 43 43 44 45 44 44 45 43 41 38 37 35 34 33 35 34 31 31 26 26 28 27 26 27 24 24
28 27 25 22 19 17 14 9 6 5 5 7 11 16 19 23 27 29 32 37 40 44 46 45 46 45 44 42 40 38 38 37 37 36 36 34 33 31 29 29 30 27 28 29 27
32 31 29 28 25 22 19 15 11 8 9 10 12 14 17 20 22 23 26 30 34 39 45 48 47 48 46 44 40 40 40 40 39 38 37 37 36 34 33 31 30 30 29 28 27
40 37 35 33 31 28 25 21 18 13 11 13 15 15 16 18 20 21 24 25 27 31 39 44 46 47 48 46 44 44 43 41 42 41 39 38 38 37 34 32 33 32 31 28 28
45 44 42 40 38 36 32 28 25 20 16 15 17 18 19 17 17 22 22 24 26 28 30 37 44 46 46 47 47 46 44 42 42 42 41 39 39 39 37 36 33 33 29 28 27
48 47 46 46 44 42 40 37 32 28 24 19 18 21 21 22 21 18 23 24 24 26 29 30 35 42 42 42 39 45 43 41 41 42 43 40 38 37 36 34 33 29 27 25 27
56 53 50 48 47 47 47 45 42 36 32 27 23 22 25 25 25 23 19 20 24 24 25 29 31 33 38 38 44 44 42 39 38 40 42 41 39 36 33 30 30 30 27 23 22
62 60 59 57 53 50 49 49 48 45 40 36 30 26 28 27 29 28 24 22 22 25 26 26 27 31 32 35 38 39 38 35 33 38 40 38 34 37 36 33 30 28 25 24 25
68 68 66 64 63 59 56 53 52 51 49 44 39 33 33 29 31 31 29 26 23 23 26 26 26 26 27 29 31 33 35 31 19 37 38 38 47 40 37 36 34 32 28 24 21
71 71 72 72 69 67 65 62 58 55 54 52 46 41 38 33 31 33 34 31 29 24 22 25 28 28 26 25 24 27 28 37 45 37 40 39 37 37 36 34 33 30 25 22 22
69 71 74 76 76 75 72 69 67 63 59 56 51 50 45 40 37 37 35 33 32 29 27 25 23 26 29 28 28 25 29 30 31 32 33 33 31 30 30 29 27 24 23 23 17
76 74 74 76 79 81 80 77 75 69 67 63 58 55 51 49 40 37 37 36 34 35 34 25 26 29 26 27 29 31 31 28 27 27 26 25 23 23 23 23 23 21 20 19 17
81 82 82 81 82 83 85 84 82 78 74 69 66 62 58 55 49 44 41 39 37 39 36 33 37 30 25 25 24 25 26 25 24 23 21 21 20 22 22 22 22 22 22 21 21
83 86 88 89 89 88 87 88 87 86 80 79 74 71 63 61 54 51 47 43 41 39 39 41 37 28 24 24 26 25 24 22 23 22 21 22 24 27 24 24 24 23 24 25 26
80 80 87 92 95 96 94 92 91 90 87 88 79 73 73 65 68 58 55 50 44 42 42 42 34 31 29 31 31 31 27 28 27 25 25 23 25 25 24 24 25 25 27 29 29
79 76 76 84 93 98 102 99 96 96 91 92 86 84 80 75 70 63 60 55 51 47 43 44 39 37 38 40 35 32 29 31 29 27 27 26 23 21 23 24 27 27 28 31 31
74 74 74 76 84 96 103 107 104 97 96 97 96 91 87 82 76 70 65 61 56 48 42 44 40 39 40 36 32 25 28 31 29 28 29 26 23 20 21 27 28 29 32 38 38
66 66 65 67 77 87 96 110 107 101 104 106 97 96 93 92 84 76 71 65 62 55 53 49 43 38 38 34 35 32 35 35 33 30 28 28 26 26 31 30 30 31 37 44 47
59 60 62 64 66 81 99 101 108 116 112 96 95 100 102 99 93 85 79 71 68 64 56 50 46 44 42 41 40 37 35 38 37 33 26 13 31 29 37 35 33 35 44 51 49
49 52 57 58 63 70 86 100 111 108 110 105 109 109 107 102 100 92 85 77 73 70 67 58 52 43 41 41 38 36 42 38 34 29 30 42 37 36 35 37 35 42 50 53 50
43 45 52 50 57 61 73 95 106 108 114 114 113 113 109 110 102 99 92 90 86 79 71 63 56 48 44 35 37 36 33 30 31 34 35 32 34 34 34 37 42 49 55 53 52
40 42 45 44 49 59 67 79 88 111 117 118 118 115 114 112 105 104 101 99 82 76 71 63 61 54 40 40 42 41 38 36 32 32 41 38 34 36 37 44 52 56 56 54 53
37 38 40 40 44 52 57 69 81 99 115 116 121 119 118 115 109 111 111 92 84 81 77 76 66 62 51 44 43 36 37 35 36 41 43 36 37 38 44 52 58 59 57 55 50
33 34 37 37 37 45 50 59 72 88 104 124 123 125 122 117 114 114 107 97 93 87 79 74 69 63 50 42 34 37 37 34 38 42 42 38 35 35 45 58 62 60 59 54 50
32 32 34 31 32 37 46 53 64 78 88 106 126 129 124 120 117 115 112 104 100 91 91 83 77 70 58 50 48 45 43 38 37 44 41 37 37 23 50 62 64 61 59 53 49
31 28 32 31 29 32 43 49 57 68 82 92 114 121 127 124 122 123 122 113 112 101 96 84 75 73 65 58 50 47 46 45 45 44 47 43 55 51 55 68 68 64 58 54 49
27 24 28 27 26 30 39 47 55 64 76 84 95 117 129 128 129 125 115 110 106 98 93 84 80 76 71 64 54 49 44 45 49 49 50 44 49 52 54 70 68 65 59 55 51
Wind_Direction
256 256 257 257 260 268 277 276 284 90 182 205 200 202 205 210 214 217 219 219 220 222 220 219 217 219 220 226 225 222 221 225 222 220 222 216 218 230 240 248 261 270 276 281 290
254 254 254 256 255 256 260 262 257 234 177 188 208 211 207 208 211 212 214 217 220 220 220 220 221 222 224 224 221 221 222 224 224 223 217 217 217 224 235 247 260 262 266 273 281
253 254 254 254 253 253 251 254 249 233 216 191 195 208 212 213 213 211 211 217 221 219 219 219 220 222 223 224 221 221 225 223 225 225 224 223 223 227 234 237 250 257 264 268 278
254 253 253 253 255 253 251 247 247 239 225 215 201 196 202 210 214 211 210 213 216 219 219 219 219 220 222 224 223 219 224 224 225 227 227 226 226 230 236 242 251 255 260 267 273
257 256 254 252 252 253 252 248 245 241 234 224 217 208 199 198 207 212 212 212 213 216 218 219 217 220 220 220 222 221 223 222 224 228 230 231 232 232 239 247 251 257 260 268 277
252 254 255 254 252 250 251 251 246 243 238 230 222 219 214 202 214 209 213 212 213 215 216 212 214 217 219 219 217 221 223 227 230 230 233 234 235 238 243 249 254 261 262 267 266
252 249 248 249 251 250 250 249 249 244 241 234 226 220 219 214 219 211 213 210 211 212 216 212 205 212 216 215 217 220 221 227 233 235 234 235 238 240 244 251 256 257 258 261 269
252 250 250 247 245 246 248 247 247 246 241 238 230 223 222 215 221 223 218 213 208 211 212 211 210 208 212 216 219 222 224 226 236 239 243 242 246 245 245 248 251 253 256 263 269
251 249 248 246 246 242 242 244 245 244 244 238 235 226 228 219 220 223 223 222 213 209 212 210 209 208 209 213 217 222 223 215 226 235 233 230 224 238 242 244 248 252 255 261 268
251 249 247 245 243 242 240 239 240 242 241 242 236 232 227 224 218 223 227 223 220 212 209 209 207 205 203 203 207 214 218 218 227 232 232 234 235 237 238 239 243 247 253 256 266
255 252 248 245 243 240 239 238 236 235 239 239 239 234 231 227 216 223 223 225 224 222 218 206 206 206 203 201 205 207 214 219 227 232 237 236 234 238 239 240 243 248 251 256 251
255 251 248 247 243 240 237 235 235 234 234 236 236 236 232 230 220 223 223 223 221 223 222 211 211 209 201 205 204 193 216 217 220 223 226 225 226 234 239 238 238 235 233 231 211
256 250 246 244 243 240 237 234 232 232 232 231 233 234 231 232 227 220 224 220 220 222 221 219 219 208 199 203 207 213 215 215 215 217 219 219 218 223 229 236 227 220 215 200 191
257 252 246 242 241 239 236 234 231 229 228 231 228 230 231 230 229 222 220 222 220 221 220 220 218 210 209 219 223 221 221 220 218 214 214 218 215 218 221 226 223 215 209 199 192
262 254 250 242 238 237 235 233 231 228 224 226 225 226 228 228 228 224 219 221 219 220 220 223 219 218 213 222 219 223 224 229 228 221 220 221 225 227 224 223 225 213 205 200 188
267 260 252 245 238 234 233 232 229 228 223 223 224 224 226 225 227 224 221 219 220 220 217 223 217 216 218 219 218 218 212 221 223 225 229 228 228 234 235 230 219 210 199 199 181
268 263 255 246 238 234 230 231 228 225 224 222 219 220 222 224 225 223 222 219 221 221 221 225 217 217 221 221 225 222 221 225 220 218 223 222 229 234 246 217 210 203 194 187 184
271 268 263 251 238 231 231 228 227 224 222 220 216 218 218 222 222 222 221 219 219 218 218 219 216 218 224 222 220 209 213 217 217 214 218 218 221 199 201 217 202 200 197 184 178
270 264 259 253 242 230 226 225 225 222 223 217 216 218 217 218 220 219 219 216 216 217 218 220 224 218 214 217 217 211 214 218 216 212 212 196 239 222 217 207 197 198 192 182 179
272 265 261 256 249 232 227 223 222 222 220 216 214 215 218 215 217 218 217 215 215 216 216 214 219 214 213 219 221 215 216 214 215 210 201 200 221 214 207 198 196 198 184 178 180
280 272 264 255 246 236 228 224 224 222 218 215 214 212 215 216 214 216 216 215 212 214 215 213 219 218 215 209 217 221 220 220 219 208 189 204 218 207 205 192 198 192 179 179 183
291 276 271 261 248 237 232 227 222 218 216 214 213 213 212 215 212 215 216 215 210 213 215 215 221 221 210 206 211 215 211 209 208 208 206 207 203 211 200 194 193 186 180 184 186
294 285 272 264 250 239 234 226 220 217 215 212 213 211 211 211 209 214 216 210 211 212 213 213 212 219 214 207 210 215 210 211 205 205 205 204 205 210 195 191 192 183 183 186 185
297 287 280 268 252 241 231 224 220 218 214 214 212 211 211 210 208 213 213 209 212 209 211 215 217 222 216 210 209 214 216 210 203 202 211 206 202 203 199 191 192 187 187 188 186
306 298 291 277 260 243 231 224 219 219 218 214 211 211 209 209 207 210 211 210 212 207 210 208 211 216 215 212 205 203 205 201 200 207 209 211 177 230 204 195 195 193 190 191 191
314 302 293 280 266 246 234 226 217 214 217 215 211 210 209 208 208 207 208 205 210 206 209 208 210 212 212 211 205 207 207 196 195 203 208 212 193 191 200 195 196 197 195 193 194
328 309 294 282 266 250 233 224 218 214 214 213 212 209 209 208 209 210 209 205 208 208 209 208 207 211 214 217 205 202 212 202 198 204 207 212 203 205 194 198 197 201 197 199 199
Height
10911 10912 10912 10913 10914 10914 10914 10914 10914 10913 10912 10912 10913 10914 10915 10918 10922 10928 10932 10937 10943 10947 10953 10960 10966 10971 10978 10983 10988 10993 10995 10999 11004 11006 11009 11012 11016 11019 11022 11023 11025 11027 11028 11028 11027
10906 10907 10908 10909 10910 10911 10911 10912 10912 10912 10912 10912 10912 10913 10914 10916 10919 10924 10927 10932 10937 10942 10947 10953 10959 10965 10971 10978 10984 10989 10992 10995 10997 11001 11005 11008 11012 11014 11016 11018 11021 11023 11025 11024 11024
10901 10902 10903 10904 10905 10906 10907 10908 10909 10910 10911 10911 10911 10912 10913 10915 10917 10921 10924 10927 10932 10937 10942 10947 10953 10959 10964 10970 10979 10983 10987 10990 10993 10996 11000 11003 11007 11010 11012 11014 11017 11019 11020 11021 11021
10893 10895 10897 10898 10899 10901 10902 10904 10906 10907 10908 10909 10909 10910 10911 10913 10915 10918 10921 10924 10927 10931 10936 10941 10947 10952 10959 10966 10973 10978 10982 10986 10989 10991 10995 10999 11002 11005 11008 11010 11013 11015 11016 11018 11019
10885 10887 10889 10891 10893 10894 10896 10898 10901 10903 10904 10906 10907 10908 10909 10911 10913 10914 10917 10920 10924 10927 10930 10936 10941 10946 10954 10961 10967 10971 10977 10981 10985 10988 10991 10994 10997 11000 11003 11006 11008 11011 11014 11016 11017
10873 10875 10878 10882 10885 10887 10889 10891 10894 10897 10899 10901 10903 10904 10906 10908 10909 10912 10914 10917 10921 10924 10927 10931 10936 10941 10947 10955 10965 10968 10972 10977 10981 10985 10987 10991 10993 10996 10999 11002 11005 11008 11011 11012 11013
10859 10862 10865 10868 10873 10877 10880 10883 10885 10890 10892 10895 10898 10900 10902 10904 10905 10908 10911 10914 10918 10921 10924 10928 10932 10936 10944 10951 10957 10963 10970 10976 10980 10982 10984 10987 10990 10993 10996 10999 11002 11005 11007 11009 11010
10842 10846 10851 10855 10859 10863 10868 10872 10876 10880 10884 10888 10891 10895 10896 10900 10901 10903 10907 10910 10914 10917 10920 10924 10928 10933 10939 10945 10952 10960 10967 10973 10977 10976 10981 10987 10988 10989 10991 10995 10998 11001 11003 11005 11006
10825 10828 10832 10837 10843 10849 10853 10858 10863 10869 10873 10879 10883 10889 10888 10894 10896 10898 10902 10906 10910 10913 10915 10920 10924 10929 10934 10940 10947 10954 10959 10969 10960 10961 10972 10983 10978 10983 10985 10989 10993 10996 10999 11001 11001
10804 10809 10813 10818 10823 10830 10837 10842 10849 10855 10861 10867 10874 10880 10882 10886 10892 10894 10895 10901 10904 10909 10912 10915 10919 10923 10929 10936 10942 10946 10952 10955 10953 10957 10964 10969 10973 10975 10978 10983 10987 10990 10993 10995 10996
10782 10787 10791 10796 10802 10809 10818 10825 10831 10839 10847 10855 10864 10868 10874 10880 10882 10886 10890 10894 10899 10903 10906 10910 10916 10920 10924 10930 10934 10940 10944 10949 10953 10956 10959 10962 10965 10968 10972 10976 10980 10983 10986 10989 10991
10758 10763 10768 10772 10778 10786 10795 10804 10813 10823 10829 10839 10849 10856 10865 10868 10878 10880 10883 10888 10893 10896 10899 10907 10911 10913 10921 10926 10929 10933 10937 10942 10946 10949 10952 10955 10958 10962 10966 10969 10974 10978 10981 10984 10987
10729 10734 10742 10746 10751 10761 10769 10780 10790 10801 10813 10823 10832 10841 10850 10858 10867 10873 10875 10880 10886 10889 10895 10900 10899 10909 10917 10921 10925 10929 10933 10937 10940 10944 10946 10949 10953 10957 10961 10966 10969 10973 10976 10980 10984
10696 10700 10708 10717 10726 10731 10743 10755 10766 10777 10795 10801 10812 10823 10837 10844 10857 10862 10867 10872 10878 10883 10887 10890 10897 10907 10913 10917 10920 10926 10929 10933 10936 10939 10943 10947 10949 10951 10957 10961 10965 10968 10972 10976 10980
10664 10667 10673 10682 10692 10702 10714 10725 10740 10753 10768 10775 10797 10813 10816 10833 10831 10851 10855 10862 10870 10874 10880 10884 10893 10899 10906 10909 10913 10918 10924 10928 10932 10936 10940 10944 10946 10950 10953 10957 10960 10963 10967 10972 10975
10632 10635 10641 10647 10659 10670 10681 10694 10708 10725 10745 10756 10775 10784 10798 10810 10821 10836 10846 10854 10858 10865 10873 10876 10884 10890 10896 10898 10906 10912 10917 10921 10925 10930 10935 10939 10943 10947 10951 10953 10956 10959 10963 10968 10971
10595 10597 10603 10613 10624 10636 10648 10661 10676 10701 10721 10730 10742 10763 10777 10792 10805 10819 10831 10842 10852 10860 10867 10870 10879 10883 10888 10897 10903 10910 10912 10914 10920 10924 10928 10935 10939 10945 10947 10947 10951 10956 10959 10964 10970
10569 10569 10573 10578 10587 10599 10613 10626 10651 10677 10680 10694 10727 10740 10757 10765 10784 10803 10816 10831 10839 10849 10851 10858 10867 10878 10883 10890 10894 10900 10903 10906 10912 10918 10925 10929 10934 10941 10940 10943 10946 10952 10956 10961 10968
10543 10543 10542 10544 10553 10564 10575 10593 10617 10623 10642 10694 10715 10717 10727 10745 10762 10780 10798 10814 10825 10835 10844 10851 10859 10865 10872 10876 10883 10891 10898 10899 10905 10913 10923 10930 10932 10933 10934 10938 10942 10948 10952 10958 10966
10520 10519 10518 10521 10525 10532 10546 10562 10573 10602 10632 10657 10664 10683 10702 10726 10740 10761 10779 10799 10811 10820 10827 10840 10846 10856 10864 10868 10878 10885 10885 10893 10901 10910 10917 10921 10924 10926 10931 10933 10939 10944 10949 10956 10964
10499 10496 10490 10494 10495 10503 10516 10524 10548 10576 10595 10621 10639 10657 10679 10695 10726 10741 10759 10768 10780 10799 10814 10830 10839 10847 10854 10867 10872 10878 10884 10892 10896 10901 10908 10917 10919 10921 10926 10931 10937 10942 10947 10954 10961
10479 10474 10471 10473 10475 10480 10488 10502 10522 10538 10562 10588 10610 10635 10654 10674 10707 10719 10731 10740 10781 10796 10812 10825 10831 10837 10852 10859 10862 10867 10874 10880 10889 10896 10901 10906 10912 10914 10921 10927 10934 10939 10945 10952 10958
10461 10457 10454 10453 10455 10459 10467 10477 10494 10510 10535 10560 10584 10608 10626 10649 10681 10692 10701 10750 10771 10780 10792 10800 10819 10827 10839 10849 10857 10866 10870 10876 10882 10885 10891 10901 10908 10913 10916 10924 10930 10936 10942 10949 10956
10447 10442 10438 10436 10438 10442 10447 10458 10472 10486 10506 10529 10554 10578 10603 10629 10653 10672 10702 10731 10745 10764 10787 10799 10811 10821 10837 10849 10856 10857 10863 10870 10876 10885 10890 10897 10905 10911 10917 10920 10928 10933 10939 10946 10953
10435 10429 10425 10423 10425 10428 10432 10439 10451 10465 10482 10502 10524 10551 10578 10606 10630 10654 10679 10710 10725 10750 10755 10776 10793 10809 10825 10835 10839 10846 10852 10862 10873 10879 10888 10894 10903 10909 10912 10920 10927 10931 10937 10944 10950
10424 10418 10413 10411 10411 10414 10418 10424 10433 10447 10460 10477 10501 10527 10558 10584 10605 10619 10634 10677 10689 10722 10738 10766 10789 10800 10813 10817 10832 10839 10845 10853 10860 10870 10880 10886 10892 10889 10902 10912 10920 10927 10934 10940 10946
10416 10409 10403 10401 10399 10400 10403 10408 10417 10427 10440 10458 10479 10512 10534 10557 10572 10599 10631 10669 10695 10722 10739 10762 10775 10788 10802 10811 10823 10832 10843 10851 10854 10861 10870 10881 10888 10893 10901 10910 10916 10924 10930 10935 10940